Savannah, GA

11:33 AM EDT on March 24, 2017 (GMT -0400)
Savannah International

Weather History for KSAV - May, 2013

Change the Weather History Date:

Thursday, May 16, 2013

  Actual Average Record
Temperature  
Mean Temperature 74 °F 73 °F  
Max Temperature 84 °F 85 °F 95 °F (1915)
Min Temperature 63 °F 62 °F 50 °F (1954)
Degree Days  
Heating Degree Days 0 0  
Month to date heating degree days 4 6  
Since 1 July heating degree days 1626 1809  
Cooling Degree Days 9 9  
Month to date cooling degree days 69 109  
Year to date cooling degree days 207 245  
Growing Degree Days 24 (Base 50)    
Moisture  
Dew Point 58 °F    
Average Humidity 64    
Maximum Humidity 84    
Minimum Humidity 43    
Precipitation  
Precipitation 0.00 in 0.09 in 4.10 in (1934)
Month to date precipitation 2.37 1.34  
Year to date precipitation 18.75 14.62  
Sea Level Pressure  
Sea Level Pressure 30.07 in    
Wind  
Wind Speed 7 mph (SW)    
Max Wind Speed 13 mph    
Max Gust Speed 16 mph    
Visibility 10 miles    
Events      
T = Trace of Precipitation, MM = Missing Value Source: NWS Daily Summary

Daily Weather History Graph

Daily Weather History Graph

Search for Another Location

Airport or City:

Trip Planner

Search our weather history database for the weather conditions in past years. The results will help you decide how hot, cold, wet, or windy it might be!

Date:

Astronomy

May. 16, 2013 Rise Set
Actual Time 6:26 AM EDT 8:16 PM EDT
Civil Twilight 5:59 AM EDT 8:43 PM EDT
Nautical Twilight 5:26 AM EDT 9:16 PM EDT
Astronomical Twilight 4:52 AM EDT 9:50 PM EDT
Moon 11:52 AM EDT (5/16) 12:41 AM EDT (5/16)
Length of Visible Light 14h 43m
Length of Day
13h 49m
Waxing Crescent, 35% of the Moon is Illuminated
May 16
Waxing Crescent
May 18
First Quarter
May 25
Full
May 31
Last Quarter
Jun 8
New

Hourly Weather History & Observations

Time (EDT) Temp. Heat Index Dew Point Humidity Pressure Visibility Wind Dir Wind Speed Gust Speed Precip Events Conditions
12:53 AM 69.1 °F - 53.1 °F 57% 30.07 in 10.0 mi SW 8.1 mph - N/A   Clear
1:53 AM 68.0 °F - 52.0 °F 56% 30.06 in 10.0 mi SSW 8.1 mph - N/A   Clear
2:53 AM 66.9 °F - 52.0 °F 59% 30.05 in 10.0 mi SW 10.4 mph - N/A   Clear
3:53 AM 66.9 °F - 53.1 °F 61% 30.04 in 10.0 mi SW 10.4 mph - N/A   Clear
4:53 AM 64.9 °F - 54.0 °F 68% 30.04 in 10.0 mi SW 5.8 mph - N/A   Clear
5:53 AM 64.0 °F - 54.0 °F 70% 30.05 in 10.0 mi SSW 5.8 mph - N/A   Clear
6:53 AM 64.0 °F - 55.0 °F 73% 30.07 in 10.0 mi SW 5.8 mph - N/A   Overcast
7:53 AM 66.0 °F - 57.0 °F 73% 30.09 in 10.0 mi WSW 5.8 mph - N/A   Overcast
8:53 AM 70.0 °F - 59.0 °F 68% 30.11 in 10.0 mi WSW 8.1 mph - N/A   Overcast
9:53 AM 73.0 °F - 59.0 °F 61% 30.11 in 10.0 mi West 8.1 mph - N/A   Overcast
10:53 AM 77.0 °F - 59.0 °F 54% 30.12 in 10.0 mi West 10.4 mph - N/A   Overcast
11:53 AM 75.9 °F - 60.1 °F 58% 30.12 in 10.0 mi West 8.1 mph - N/A   Overcast
12:53 PM 75.0 °F - 60.1 °F 60% 30.11 in 10.0 mi WSW 4.6 mph - N/A   Overcast
1:53 PM 78.1 °F - 60.1 °F 54% 30.09 in 10.0 mi SW 8.1 mph - N/A   Mostly Cloudy
2:53 PM 81.0 °F 81.6 °F 60.1 °F 49% 30.07 in 10.0 mi SSW 5.8 mph - N/A   Mostly Cloudy
3:53 PM 82.0 °F 82.0 °F 57.9 °F 44% 30.05 in 10.0 mi WSW 8.1 mph - N/A   Mostly Cloudy
4:53 PM 82.9 °F 82.6 °F 57.9 °F 42% 30.03 in 10.0 mi Calm Calm - N/A   Mostly Cloudy
5:53 PM 82.9 °F 82.6 °F 57.9 °F 42% 30.03 in 10.0 mi SSW 4.6 mph - N/A   Mostly Cloudy
6:53 PM 82.9 °F 83.2 °F 60.1 °F 46% 30.02 in 10.0 mi SSW 6.9 mph - N/A   Mostly Cloudy
7:53 PM 78.1 °F - 63.0 °F 60% 30.03 in 10.0 mi South 10.4 mph - N/A   Mostly Cloudy
8:53 PM 73.0 °F - 63.0 °F 71% 30.05 in 10.0 mi South 6.9 mph - N/A   Mostly Cloudy
9:53 PM 71.1 °F - 64.0 °F 78% 30.06 in 10.0 mi South 8.1 mph - N/A   Mostly Cloudy
10:53 PM 71.1 °F - 64.9 °F 81% 30.08 in 10.0 mi South 9.2 mph - N/A   Mostly Cloudy
11:53 PM 70.0 °F - 64.9 °F 84% 30.07 in 10.0 mi South 8.1 mph - N/A   Mostly Cloudy